Time,TemperatureF,DewpointF,PressureIn,WindDirection,WindDirectionDegrees,WindSpeedMPH,WindSpeedGustMPH,Humidity,HourlyPrecipIn,Conditions,Clouds,dailyrainin,SoftwareType,DateUTC
2013-02-18 00:00:00,50.0,-99.9,29.93,WSW,249,0.0,0.0,-999,-99.99,,,-99.99,,2013-02-18 08:00:00,
2013-02-18 00:05:00,49.5,-99.9,29.93,WSW,249,0.0,0.0,-999,-99.99,,,-99.99,,2013-02-18 08:05:00,
2013-02-18 00:10:00,49.5,-99.9,29.93,WSW,249,0.0,0.0,-999,-99.99,,,-99.99,,2013-02-18 08:10:00,
2013-02-18 00:15:00,49.8,-99.9,29.93,WSW,249,0.0,0.0,-999,-99.99,,,-99.99,,2013-02-18 08:15:00,
2013-02-18 00:20:00,49.5,-99.9,29.93,WSW,249,0.0,0.0,-999,-99.99,,,-99.99,,2013-02-18 08:20:00,
2013-02-18 00:25:00,49.3,-99.9,29.93,WSW,249,0.0,0.0,-999,-99.99,,,-99.99,,2013-02-18 08:25:00,
2013-02-18 00:30:00,49.2,-99.9,29.93,WSW,249,0.0,0.0,-999,-99.99,,,-99.99,,2013-02-18 08:30:00,
2013-02-18 00:40:00,49.6,-99.9,29.93,East,86,0.0,19.0,-999,-99.99,,,-99.99,,2013-02-18 08:40:00,
2013-02-18 00:45:00,49.6,-99.9,29.93,ENE,59,0.0,0.0,-999,-99.99,,,-99.99,,2013-02-18 08:45:00,
2013-02-18 00:50:00,49.4,-99.9,29.93,ENE,59,0.0,0.0,-999,-99.99,,,-99.99,,2013-02-18 08:50:00,
2013-02-18 00:55:00,49.4,-99.9,29.93,East,79,0.0,0.0,-999,-99.99,,,-99.99,,2013-02-18 08:55:00,
2013-02-18 01:00:00,49.4,-99.9,29.93,ESE,108,0.0,12.2,-999,-99.99,,,-99.99,,2013-02-18 09:00:00,
2013-02-18 01:05:00,49.3,-99.9,29.93,ENE,69,0.0,5.6,-999,-99.99,,,-99.99,,2013-02-18 09:05:00,
2013-02-18 01:10:00,49.2,-99.9,29.93,East,98,0.0,0.0,-999,-99.99,,,-99.99,,2013-02-18 09:10:00,
2013-02-18 01:15:00,49.3,-99.9,29.93,East,98,0.0,0.0,-999,-99.99,,,-99.99,,2013-02-18 09:15:00,
2013-02-18 01:20:00,48.8,-99.9,29.93,East,98,0.0,0.0,-999,-99.99,,,-99.99,,2013-02-18 09:20:00,
2013-02-18 01:25:00,48.8,-99.9,29.93,East,79,0.0,13.5,-999,-99.99,,,-99.99,,2013-02-18 09:25:00,
2013-02-18 01:30:00,48.9,-99.9,29.93,ENE,69,0.0,0.0,-999,-99.99,,,-99.99,,2013-02-18 09:30:00,
2013-02-18 01:35:00,49.1,-99.9,29.93,ENE,69,0.0,0.0,-999,-99.99,,,-99.99,,2013-02-18 09:35:00,
2013-02-18 01:40:00,48.9,-99.9,29.93,SE,138,0.0,0.0,-999,-99.99,,,-99.99,,2013-02-18 09:40:00,
2013-02-18 01:50:00,48.6,-99.9,29.92,East,86,0.0,0.0,-999,-99.99,,,-99.99,,2013-02-18 09:50:00,
2013-02-18 01:55:00,48.9,-99.9,29.92,East,86,0.0,0.0,-999,-99.99,,,-99.99,,2013-02-18 09:55:00,
2013-02-18 02:00:00,48.9,-99.9,29.93,East,86,0.0,0.0,-999,-99.99,,,-99.99,,2013-02-18 10:00:00,
2013-02-18 02:05:00,48.7,-99.9,29.92,East,98,0.0,9.0,-999,-99.99,,,-99.99,,2013-02-18 10:05:00,
2013-02-18 02:10:00,48.8,-99.9,29.92,East,98,0.0,0.0,-999,-99.99,,,-99.99,,2013-02-18 10:10:00,
2013-02-18 02:20:00,48.6,-99.9,29.92,ENE,77,0.0,0.0,-999,-99.99,,,-99.99,,2013-02-18 10:20:00,
2013-02-18 02:30:00,48.6,-99.9,29.92,East,87,0.0,0.0,-999,-99.99,,,-99.99,,2013-02-18 10:30:00,
2013-02-18 02:40:00,48.5,-99.9,29.91,ESE,115,0.0,13.0,-999,-99.99,,,-99.99,,2013-02-18 10:40:00,
2013-02-18 02:50:00,48.1,-99.9,29.91,East,83,0.0,24.0,-999,-99.99,,,-99.99,,2013-02-18 10:50:00,
2013-02-18 03:00:00,48.4,-99.9,29.91,East,79,0.0,19.8,-999,-99.99,,,-99.99,,2013-02-18 11:00:00,
2013-02-18 03:05:00,48.2,-99.9,29.91,East,79,0.0,0.0,-999,-99.99,,,-99.99,,2013-02-18 11:05:00,
2013-02-18 03:10:00,48.1,-99.9,29.90,ESE,108,0.0,0.0,-999,-99.99,,,-99.99,,2013-02-18 11:10:00,
2013-02-18 03:15:00,48.3,-99.9,29.90,ESE,108,0.0,0.0,-999,-99.99,,,-99.99,,2013-02-18 11:15:00,
2013-02-18 03:20:00,48.3,-99.9,29.90,ESE,108,0.0,0.0,-999,-99.99,,,-99.99,,2013-02-18 11:20:00,
2013-02-18 03:30:00,48.1,-99.9,29.90,East,98,0.0,12.4,-999,-99.99,,,-99.99,,2013-02-18 11:30:00,
2013-02-18 03:35:00,48.1,-99.9,29.90,East,98,0.0,0.0,-999,-99.99,,,-99.99,,2013-02-18 11:35:00,
2013-02-18 03:40:00,47.8,-99.9,29.90,ESE,103,0.0,11.6,-999,-99.99,,,-99.99,,2013-02-18 11:40:00,
2013-02-18 03:45:00,47.7,-99.9,29.90,ESE,111,0.0,0.0,-999,-99.99,,,-99.99,,2013-02-18 11:45:00,
2013-02-18 03:50:00,47.9,-99.9,29.89,ESE,111,0.0,0.0,-999,-99.99,,,-99.99,,2013-02-18 11:50:00,
2013-02-18 04:00:00,47.8,-99.9,29.89,ESE,112,0.0,0.0,-999,-99.99,,,-99.99,,2013-02-18 12:00:00,
2013-02-18 04:05:00,47.9,-99.9,29.90,ESE,112,0.0,0.0,-999,-99.99,,,-99.99,,2013-02-18 12:05:00,
2013-02-18 04:10:00,47.8,-99.9,29.90,ESE,105,0.0,19.2,-999,-99.99,,,-99.99,,2013-02-18 12:10:00,
2013-02-18 04:20:00,47.8,-99.9,29.90,East,101,0.0,0.0,-999,-99.99,,,-99.99,,2013-02-18 12:20:00,
2013-02-18 04:30:00,47.9,-99.9,29.90,East,101,0.0,0.0,-999,-99.99,,,-99.99,,2013-02-18 12:30:00,
2013-02-18 04:40:00,47.6,-99.9,29.90,East,94,0.0,0.0,-999,-99.99,,,-99.99,,2013-02-18 12:40:00,
2013-02-18 04:50:00,47.8,-99.9,29.90,ESE,119,0.0,0.0,-999,-99.99,,,-99.99,,2013-02-18 12:50:00,
2013-02-18 05:00:00,47.9,-99.9,29.91,SE,124,0.0,0.0,-999,-99.99,,,-99.99,,2013-02-18 13:00:00,
2013-02-18 05:10:00,47.7,-99.9,29.91,ESE,105,0.0,0.0,-999,-99.99,,,-99.99,,2013-02-18 13:10:00,
2013-02-18 05:20:00,47.5,-99.9,29.91,ESE,114,0.0,14.2,-999,-99.99,,,-99.99,,2013-02-18 13:20:00,
2013-02-18 05:30:00,47.5,-99.9,29.91,East,93,0.0,0.0,-999,-99.99,,,-99.99,,2013-02-18 13:30:00,
2013-02-18 05:40:00,47.5,-99.9,29.91,North,11,0.0,8.7,-999,-99.99,,,-99.99,,2013-02-18 13:40:00,
2013-02-18 05:45:00,47.3,-99.9,29.91,ESE,107,8.7,21.9,-999,-99.99,,,-99.99,,2013-02-18 13:45:00,
2013-02-18 05:55:00,47.3,-99.9,29.91,SE,127,0.0,0.0,-999,-99.99,,,-99.99,,2013-02-18 13:55:00,
2013-02-18 06:05:00,47.3,-99.9,29.91,South,173,0.0,14.3,-999,-99.99,,,-99.99,,2013-02-18 14:05:00,
2013-02-18 06:15:00,47.2,-99.9,29.91,ESE,107,0.0,0.0,-999,-99.99,,,-99.99,,2013-02-18 14:15:00,
2013-02-18 06:20:00,47.3,-99.9,29.91,East,93,0.0,0.0,-999,-99.99,,,-99.99,,2013-02-18 14:20:00,
2013-02-18 06:25:00,47.5,-99.9,29.90,East,93,0.0,0.0,-999,-99.99,,,-99.99,,2013-02-18 14:25:00,
2013-02-18 06:35:00,47.5,-99.9,29.91,SE,132,0.0,0.0,-999,-99.99,,,-99.99,,2013-02-18 14:35:00,
2013-02-18 06:40:00,47.5,-99.9,29.91,WSW,251,0.0,0.0,-999,-99.99,,,-99.99,,2013-02-18 14:40:00,
2013-02-18 06:45:00,47.5,-99.9,29.91,WSW,251,0.0,0.0,-999,-99.99,,,-99.99,,2013-02-18 14:45:00,
2013-02-18 06:50:00,47.6,-99.9,29.91,WSW,251,0.0,0.0,-999,-99.99,,,-99.99,,2013-02-18 14:50:00,
2013-02-18 06:55:00,47.4,-99.9,29.91,WSW,251,0.0,0.0,-999,-99.99,,,-99.99,,2013-02-18 14:55:00,
2013-02-18 07:05:00,47.5,-99.9,29.91,ENE,71,0.0,0.0,-999,-99.99,,,-99.99,,2013-02-18 15:05:00,
2013-02-18 07:10:00,47.4,-99.9,29.91,ENE,71,0.0,0.0,-999,-99.99,,,-99.99,,2013-02-18 15:10:00,
2013-02-18 07:15:00,47.4,-99.9,29.91,ESE,107,11.7,25.1,-999,-99.99,,,-99.99,,2013-02-18 15:15:00,
2013-02-18 07:20:00,47.2,-99.9,29.91,ESE,103,0.0,12.9,-999,-99.99,,,-99.99,,2013-02-18 15:20:00,
2013-02-18 07:25:00,47.5,-99.9,29.92,ESE,103,0.0,0.0,-999,-99.99,,,-99.99,,2013-02-18 15:25:00,
2013-02-18 07:30:00,47.0,-99.9,29.92,ESE,105,0.0,9.0,-999,-99.99,,,-99.99,,2013-02-18 15:30:00,
2013-02-18 07:35:00,47.2,-99.9,29.92,NNE,28,0.0,16.6,-999,-99.99,,,-99.99,,2013-02-18 15:35:00,
2013-02-18 07:40:00,47.5,-99.9,29.93,WSW,237,0.0,0.0,-999,-99.99,,,-99.99,,2013-02-18 15:40:00,
2013-02-18 07:50:00,47.6,-99.9,29.93,WSW,237,0.0,0.0,-999,-99.99,,,-99.99,,2013-02-18 15:50:00,
2013-02-18 07:55:00,47.7,-99.9,29.93,WSW,237,0.0,0.0,-999,-99.99,,,-99.99,,2013-02-18 15:55:00,
2013-02-18 08:00:00,47.6,-99.9,29.93,ESE,112,0.0,0.0,-999,-99.99,,,-99.99,,2013-02-18 16:00:00,
2013-02-18 08:10:00,47.7,-99.9,29.93,ESE,112,0.0,0.0,-999,-99.99,,,-99.99,,2013-02-18 16:10:00,
2013-02-18 08:15:00,47.6,-99.9,29.93,ESE,112,0.0,0.0,-999,-99.99,,,-99.99,,2013-02-18 16:15:00,
2013-02-18 08:20:00,47.5,-99.9,29.93,SE,131,0.0,14.0,-999,-99.99,,,-99.99,,2013-02-18 16:20:00,
2013-02-18 08:25:00,47.6,-99.9,29.93,East,91,0.0,0.0,-999,-99.99,,,-99.99,,2013-02-18 16:25:00,
2013-02-18 08:30:00,47.8,-99.9,29.94,East,91,0.0,0.0,-999,-99.99,,,-99.99,,2013-02-18 16:30:00,
2013-02-18 08:35:00,47.7,-99.9,29.94,East,91,0.0,0.0,-999,-99.99,,,-99.99,,2013-02-18 16:35:00,
2013-02-18 08:40:00,47.9,-99.9,29.94,SE,141,0.0,11.3,-999,-99.99,,,-99.99,,2013-02-18 16:40:00,
2013-02-18 08:45:00,47.7,-99.9,29.94,WSW,242,0.0,16.3,-999,-99.99,,,-99.99,,2013-02-18 16:45:00,
2013-02-18 08:50:00,47.8,-99.9,29.95,East,90,0.0,16.4,-999,-99.99,,,-99.99,,2013-02-18 16:50:00,
2013-02-18 09:00:00,48.1,-99.9,29.95,South,172,0.0,0.0,-999,-99.99,,,-99.99,,2013-02-18 17:00:00,
2013-02-18 09:10:00,48.1,-99.9,29.95,ENE,76,0.0,7.7,-999,-99.99,,,-99.99,,2013-02-18 17:10:00,
2013-02-18 09:20:00,48.0,-99.9,29.95,WSW,254,0.0,8.4,-999,-99.99,,,-99.99,,2013-02-18 17:20:00,
2013-02-18 09:25:00,47.9,-99.9,29.95,NNW,327,0.0,8.5,-999,-99.99,,,-99.99,,2013-02-18 17:25:00,
2013-02-18 09:30:00,48.0,-99.9,29.95,NNW,327,0.0,0.0,-999,-99.99,,,-99.99,,2013-02-18 17:30:00,
2013-02-18 09:40:00,48.2,-99.9,29.95,SE,134,0.0,0.0,-999,-99.99,,,-99.99,,2013-02-18 17:40:00,
2013-02-18 09:45:00,48.1,-99.9,29.95,ESE,111,0.0,0.0,-999,-99.99,,,-99.99,,2013-02-18 17:45:00,
2013-02-18 09:50:00,47.9,-99.9,29.94,WSW,258,8.7,13.0,-999,-99.99,,,-99.99,,2013-02-18 17:50:00,
2013-02-18 10:00:00,48.2,-99.9,29.94,SW,235,0.0,0.0,-999,-99.99,,,-99.99,,2013-02-18 18:00:00,
2013-02-18 10:10:00,48.3,-99.9,29.94,West,265,12.4,16.7,-999,-99.99,,,-99.99,,2013-02-18 18:10:00,
2013-02-18 10:20:00,48.1,-99.9,29.95,ESE,103,0.0,0.0,-999,-99.99,,,-99.99,,2013-02-18 18:20:00,
2013-02-18 10:30:00,48.2,-99.9,29.95,NNW,327,0.0,6.4,-999,-99.99,,,-99.99,,2013-02-18 18:30:00,
2013-02-18 10:40:00,48.3,-99.9,29.95,NNW,330,13.7,16.1,-999,-99.99,,,-99.99,,2013-02-18 18:40:00,
2013-02-18 10:50:00,48.5,-99.9,29.95,NW,316,8.4,15.8,-999,-99.99,,,-99.99,,2013-02-18 18:50:00,
2013-02-18 11:00:00,48.4,-99.9,29.95,East,95,17.1,23.0,-999,-99.99,,,-99.99,,2013-02-18 19:00:00,
2013-02-18 11:10:00,48.8,-99.9,29.94,ENE,76,0.0,0.0,-999,-99.99,,,-99.99,,2013-02-18 19:10:00,
2013-02-18 11:20:00,48.7,-99.9,29.95,ENE,70,0.0,0.0,-999,-99.99,,,-99.99,,2013-02-18 19:20:00,
2013-02-18 11:25:00,48.8,-99.9,29.95,ENE,59,0.0,11.9,-999,-99.99,,,-99.99,,2013-02-18 19:25:00,
2013-02-18 11:30:00,48.7,-99.9,29.95,WNW,297,10.9,25.3,-999,-99.99,,,-99.99,,2013-02-18 19:30:00,
2013-02-18 11:40:00,48.9,-99.9,29.94,NNW,327,0.0,0.0,-999,-99.99,,,-99.99,,2013-02-18 19:40:00,
2013-02-18 11:50:00,48.9,-99.9,29.94,South,189,0.0,12.9,-999,-99.99,,,-99.99,,2013-02-18 19:50:00,
2013-02-18 12:00:00,49.0,-99.9,29.94,ESE,121,8.5,11.4,-999,-99.99,,,-99.99,,2013-02-18 20:00:00,
2013-02-18 12:10:00,49.2,-99.9,29.94,WSW,252,0.0,0.0,-999,-99.99,,,-99.99,,2013-02-18 20:10:00,
2013-02-18 12:20:00,49.3,-99.9,29.93,ENE,69,0.0,5.1,-999,-99.99,,,-99.99,,2013-02-18 20:20:00,
2013-02-18 12:25:00,49.2,-99.9,29.93,WNW,296,0.0,17.7,-999,-99.99,,,-99.99,,2013-02-18 20:25:00,
2013-02-18 12:30:00,49.5,-99.9,29.93,NW,314,0.0,0.0,-999,-99.99,,,-99.99,,2013-02-18 20:30:00,
2013-02-18 12:40:00,49.8,-99.9,29.93,ENE,66,0.0,0.0,-999,-99.99,,,-99.99,,2013-02-18 20:40:00,
2013-02-18 12:45:00,49.9,-99.9,29.93,ENE,66,0.0,0.0,-999,-99.99,,,-99.99,,2013-02-18 20:45:00,
2013-02-18 12:50:00,49.8,-99.9,29.93,ENE,66,0.0,17.4,-999,-99.99,,,-99.99,,2013-02-18 20:50:00,
2013-02-18 12:55:00,49.6,-99.9,29.92,ESE,105,0.0,0.0,-999,-99.99,,,-99.99,,2013-02-18 20:55:00,
2013-02-18 13:00:00,49.7,-99.9,29.92,WSW,239,0.0,0.0,-999,-99.99,,,-99.99,,2013-02-18 21:00:00,
2013-02-18 13:10:00,50.0,-99.9,29.92,NW,313,0.0,11.9,-999,-99.99,,,-99.99,,2013-02-18 21:10:00,
2013-02-18 13:15:00,49.9,-99.9,29.91,South,173,16.1,16.9,-999,-99.99,,,-99.99,,2013-02-18 21:15:00,
2013-02-18 13:20:00,49.6,-99.9,29.91,ESE,121,0.0,8.2,-999,-99.99,,,-99.99,,2013-02-18 21:20:00,
2013-02-18 13:30:00,49.7,-99.9,29.90,WNW,292,0.0,0.0,-999,-99.99,,,-99.99,,2013-02-18 21:30:00,
2013-02-18 13:40:00,49.6,-99.9,29.90,WSW,254,0.0,22.4,-999,-99.99,,,-99.99,,2013-02-18 21:40:00,
2013-02-18 13:45:00,49.9,-99.9,29.90,NW,323,0.0,0.0,-999,-99.99,,,-99.99,,2013-02-18 21:45:00,
2013-02-18 13:50:00,49.9,-99.9,29.90,NNW,335,0.0,2.7,-999,-99.99,,,-99.99,,2013-02-18 21:50:00,
2013-02-18 14:00:00,50.1,-99.9,29.90,WNW,295,13.4,21.6,-999,-99.99,,,-99.99,,2013-02-18 22:00:00,
2013-02-18 14:10:00,50.2,-99.9,29.90,West,280,0.0,8.4,-999,-99.99,,,-99.99,,2013-02-18 22:10:00,
2013-02-18 14:20:00,50.5,-99.9,29.90,SSE,160,16.1,20.6,-999,-99.99,,,-99.99,,2013-02-18 22:20:00,
2013-02-18 14:30:00,51.0,-99.9,29.90,SSW,200,8.2,13.0,-999,-99.99,,,-99.99,,2013-02-18 22:30:00,
2013-02-18 14:35:00,51.0,-99.9,29.90,South,180,8.7,18.2,-999,-99.99,,,-99.99,,2013-02-18 22:35:00,
2013-02-18 14:40:00,51.1,-99.9,29.90,WSW,252,0.0,6.1,-999,-99.99,,,-99.99,,2013-02-18 22:40:00,
2013-02-18 14:50:00,51.1,-99.9,29.90,WSW,258,0.0,10.9,-999,-99.99,,,-99.99,,2013-02-18 22:50:00,
2013-02-18 15:00:00,51.2,-99.9,29.90,WSW,258,0.0,0.0,-999,-99.99,,,-99.99,,2013-02-18 23:00:00,
2013-02-18 15:05:00,51.2,-99.9,29.90,ESE,117,0.0,7.4,-999,-99.99,,,-99.99,,2013-02-18 23:05:00,
2013-02-18 15:10:00,51.3,-99.9,29.90,NE,36,0.0,0.0,-999,-99.99,,,-99.99,,2013-02-18 23:10:00,
2013-02-18 15:20:00,51.4,-99.9,29.90,NW,304,15.9,19.5,-999,-99.99,,,-99.99,,2013-02-18 23:20:00,
2013-02-18 15:30:00,51.3,-99.9,29.90,South,189,0.0,0.0,-999,-99.99,,,-99.99,,2013-02-18 23:30:00,
2013-02-18 15:40:00,51.1,-99.9,29.90,East,79,0.0,0.0,-999,-99.99,,,-99.99,,2013-02-18 23:40:00,
2013-02-18 15:50:00,51.2,-99.9,29.90,ESE,107,0.0,0.0,-999,-99.99,,,-99.99,,2013-02-18 23:50:00,
2013-02-18 16:00:00,51.2,-99.9,29.90,South,182,0.0,8.0,-999,-99.99,,,-99.99,,2013-02-19 00:00:00,
2013-02-18 16:10:00,50.7,-99.9,29.90,West,279,13.4,23.0,-999,-99.99,,,-99.99,,2013-02-19 00:10:00,
2013-02-18 16:15:00,50.0,-99.9,29.90,South,176,11.1,14.8,-999,-99.99,,,-99.99,,2013-02-19 00:15:00,
2013-02-18 16:20:00,50.3,-99.9,29.90,WSW,248,0.0,17.9,-999,-99.99,,,-99.99,,2013-02-19 00:20:00,
2013-02-18 16:30:00,50.2,-99.9,29.90,WSW,241,12.7,12.7,-999,-99.99,,,-99.99,,2013-02-19 00:30:00,
2013-02-18 16:40:00,50.1,-99.9,29.89,SSE,165,0.0,14.3,-999,-99.99,,,-99.99,,2013-02-19 00:40:00,
2013-02-18 16:50:00,49.6,-99.9,29.90,WNW,293,8.0,24.0,-999,-99.99,,,-99.99,,2013-02-19 00:50:00,
2013-02-18 16:55:00,49.7,-99.9,29.89,West,266,0.0,0.0,-999,-99.99,,,-99.99,,2013-02-19 00:55:00,
2013-02-18 17:00:00,49.6,-99.9,29.90,SW,235,0.0,15.0,-999,-99.99,,,-99.99,,2013-02-19 01:00:00,
2013-02-18 17:10:00,49.7,-99.9,29.89,NE,42,0.0,8.4,-999,-99.99,,,-99.99,,2013-02-19 01:10:00,
2013-02-18 17:20:00,49.6,-99.9,29.89,West,271,7.6,13.4,-999,-99.99,,,-99.99,,2013-02-19 01:20:00,
2013-02-18 17:30:00,49.2,-99.9,29.88,WSW,254,0.0,0.0,-999,-99.99,,,-99.99,,2013-02-19 01:30:00,
2013-02-18 17:40:00,49.1,-99.9,29.89,East,90,14.2,16.7,-999,-99.99,,,-99.99,,2013-02-19 01:40:00,
2013-02-18 17:45:00,49.3,-99.9,29.89,SSW,196,0.0,4.2,-999,-99.99,,,-99.99,,2013-02-19 01:45:00,
2013-02-18 17:50:00,49.1,-99.9,29.89,WSW,238,0.0,17.2,-999,-99.99,,,-99.99,,2013-02-19 01:50:00,
2013-02-18 18:00:00,48.9,-99.9,29.89,NW,316,0.0,0.0,-999,-99.99,,,-99.99,,2013-02-19 02:00:00,
2013-02-18 18:10:00,49.2,-99.9,29.88,NNE,14,0.0,0.0,-999,-99.99,,,-99.99,,2013-02-19 02:10:00,
2013-02-18 18:20:00,48.9,-99.9,29.88,East,93,0.0,0.0,-999,-99.99,,,-99.99,,2013-02-19 02:20:00,
2013-02-18 18:30:00,48.9,-99.9,29.88,WSW,254,0.0,0.0,-999,-99.99,,,-99.99,,2013-02-19 02:30:00,
2013-02-18 18:40:00,48.6,-99.9,29.88,ESE,104,0.0,0.0,-999,-99.99,,,-99.99,,2013-02-19 02:40:00,
2013-02-18 18:50:00,48.9,-99.9,29.88,ESE,104,0.0,0.0,-999,-99.99,,,-99.99,,2013-02-19 02:50:00,
2013-02-18 18:55:00,48.8,-99.9,29.88,WNW,295,20.6,20.6,-999,-99.99,,,-99.99,,2013-02-19 02:55:00,
2013-02-18 19:00:00,48.8,-99.9,29.88,WNW,290,8.2,8.2,-999,-99.99,,,-99.99,,2013-02-19 03:00:00,
2013-02-18 19:05:00,48.8,-99.9,29.88,SW,221,0.0,0.0,-999,-99.99,,,-99.99,,2013-02-19 03:05:00,
2013-02-18 19:15:00,48.4,-99.9,29.88,SSW,208,8.4,8.4,-999,-99.99,,,-99.99,,2013-02-19 03:15:00,
2013-02-18 19:25:00,48.7,-99.9,29.88,East,80,0.0,0.0,-999,-99.99,,,-99.99,,2013-02-19 03:25:00,
2013-02-18 19:30:00,48.5,-99.9,29.89,WSW,258,0.0,13.7,-999,-99.99,,,-99.99,,2013-02-19 03:30:00,
2013-02-18 19:35:00,48.5,-99.9,29.89,SW,235,0.0,13.5,-999,-99.99,,,-99.99,,2013-02-19 03:35:00,
2013-02-18 19:40:00,48.7,-99.9,29.89,SW,235,0.0,0.0,-999,-99.99,,,-99.99,,2013-02-19 03:40:00,
2013-02-18 19:45:00,48.5,-99.9,29.89,East,86,0.0,12.1,-999,-99.99,,,-99.99,,2013-02-19 03:45:00,
2013-02-18 19:50:00,48.2,-99.9,29.88,NW,310,10.9,18.7,-999,-99.99,,,-99.99,,2013-02-19 03:50:00,
2013-02-18 19:55:00,48.4,-99.9,29.88,West,278,5.8,12.9,-999,-99.99,,,-99.99,,2013-02-19 03:55:00,
2013-02-18 20:00:00,48.4,-99.9,29.88,West,259,0.0,0.0,-999,-99.99,,,-99.99,,2013-02-19 04:00:00,
2013-02-18 20:05:00,48.6,-99.9,29.88,West,259,0.0,0.0,-999,-99.99,,,-99.99,,2013-02-19 04:05:00,
2013-02-18 20:10:00,48.4,-99.9,29.88,West,263,16.4,18.8,-999,-99.99,,,-99.99,,2013-02-19 04:10:00,
2013-02-18 20:20:00,48.5,-99.9,29.88,South,182,0.0,13.0,-999,-99.99,,,-99.99,,2013-02-19 04:20:00,
2013-02-18 20:30:00,48.4,-99.9,29.88,West,263,0.0,0.0,-999,-99.99,,,-99.99,,2013-02-19 04:30:00,
2013-02-18 20:35:00,48.5,-99.9,29.88,West,266,0.0,8.7,-999,-99.99,,,-99.99,,2013-02-19 04:35:00,
2013-02-18 20:40:00,48.4,-99.9,29.88,South,191,0.0,11.3,-999,-99.99,,,-99.99,,2013-02-19 04:40:00,
2013-02-18 20:50:00,48.1,-99.9,29.89,SSW,201,0.0,0.0,-999,-99.99,,,-99.99,,2013-02-19 04:50:00,
2013-02-18 21:05:00,48.0,-99.9,29.89,North,359,11.4,18.0,-999,-99.99,,,-99.99,,2013-02-19 05:05:00,
2013-02-18 21:10:00,48.0,-99.9,29.89,SSW,211,0.0,7.7,-999,-99.99,,,-99.99,,2013-02-19 05:10:00,
2013-02-18 21:15:00,47.9,-99.9,29.89,SW,228,11.3,13.4,-999,-99.99,,,-99.99,,2013-02-19 05:15:00,
2013-02-18 21:20:00,47.9,-99.9,29.89,WNW,282,22.0,22.0,-999,-99.99,,,-99.99,,2013-02-19 05:20:00,
2013-02-18 21:25:00,47.7,-99.9,29.90,West,259,7.1,17.9,-999,-99.99,,,-99.99,,2013-02-19 05:25:00,
2013-02-18 21:30:00,47.8,-99.9,29.90,WSW,255,0.0,7.9,-999,-99.99,,,-99.99,,2013-02-19 05:30:00,
2013-02-18 21:40:00,47.6,-99.9,29.90,West,276,8.4,8.4,-999,-99.99,,,-99.99,,2013-02-19 05:40:00,
2013-02-18 21:50:00,47.6,-99.9,29.90,NNW,337,0.0,0.0,-999,-99.99,,,-99.99,,2013-02-19 05:50:00,
2013-02-18 22:00:00,47.4,-99.9,29.90,SW,227,0.0,0.0,-999,-99.99,,,-99.99,,2013-02-19 06:00:00,
2013-02-18 22:10:00,47.5,-99.9,29.90,WSW,244,0.0,7.7,-999,-99.99,,,-99.99,,2013-02-19 06:10:00,
2013-02-18 22:20:00,47.6,-99.9,29.89,WSW,256,0.0,0.0,-999,-99.99,,,-99.99,,2013-02-19 06:20:00,
2013-02-18 22:30:00,47.5,-99.9,29.89,WNW,296,0.0,0.0,-999,-99.99,,,-99.99,,2013-02-19 06:30:00,
2013-02-18 22:40:00,47.3,-99.9,29.89,WNW,287,0.0,0.0,-999,-99.99,,,-99.99,,2013-02-19 06:40:00,
2013-02-18 22:50:00,47.1,-99.9,29.89,West,272,0.0,21.2,-999,-99.99,,,-99.99,,2013-02-19 06:50:00,
2013-02-18 22:55:00,47.1,-99.9,29.89,NW,310,0.0,0.0,-999,-99.99,,,-99.99,,2013-02-19 06:55:00,
2013-02-18 23:00:00,47.0,-99.9,29.88,West,276,0.0,3.1,-999,-99.99,,,-99.99,,2013-02-19 07:00:00,
2013-02-18 23:05:00,47.0,-99.9,29.88,West,265,0.0,25.1,-999,-99.99,,,-99.99,,2013-02-19 07:05:00,
2013-02-18 23:10:00,47.2,-99.9,29.88,WSW,251,0.0,0.0,-999,-99.99,,,-99.99,,2013-02-19 07:10:00,
2013-02-18 23:20:00,46.8,-99.9,29.88,WNW,292,8.7,14.6,-999,-99.99,,,-99.99,,2013-02-19 07:20:00,
2013-02-18 23:30:00,46.7,-99.9,29.88,West,272,17.7,20.4,-999,-99.99,,,-99.99,,2013-02-19 07:30:00,
2013-02-18 23:35:00,46.4,-99.9,29.88,West,263,25.3,35.7,-999,-99.99,,,-99.99,,2013-02-19 07:35:00,
2013-02-18 23:40:00,46.4,-99.9,29.88,NW,320,11.7,26.2,-999,-99.99,,,-99.99,,2013-02-19 07:40:00,
2013-02-18 23:45:00,46.3,-99.9,29.88,WNW,292,8.0,31.7,-999,-99.99,,,-99.99,,2013-02-19 07:45:00,
2013-02-18 23:50:00,46.4,-99.9,29.88,WNW,290,0.0,18.8,-999,-99.99,,,-99.99,,2013-02-19 07:50:00,